sat.trackr.live / text

‹ back to catalog

STARLINK-37137

NORAD 68384 · 2026-063E

PAYLOAD ACTIVE UNKNOWN

§ Identity

Operator
Country
US
Launch date
2026-03-26
Launch site
AFWTR
Launch vehicle
Mass (kg)
RCS (m²)

Purposes: comms

External: N2YO · Heavens-Above · Gunter

§ Orbital elements

Epoch: 2026-09-20T02:51:15.176160Z

Period
93.90 min
Inclination
97.2847°
Eccentricity
0.0001165
Mean motion
15.33471994 rev/d
Perigee alt
464.7 km
Apogee alt
466.3 km
Semi-major
6,843.6 km
B*
6.1085e-4
RAAN
44.0359°
Arg perigee
269.4873°
Mean anomaly
90.6236°
Rev number
2,769

§ Raw data

STARLINK-371371 68384U 26063E   26263.11892565  .00019714  00000+0  61085-3 0  99962 68384  97.2847  44.0359 0001165 269.4873  90.6236 15.33471994 27691

JSON: /api/v1/satellites/68384 · /tle

For live sub-satellite position, see the globe view (requires WebGL).

§ Visibility from observer

Set your observer location to see the next 7 days of passes ≥ 10°. The values pass through the URL so the page stays shareable.

No JS? Fill the form by hand. The geolocation button needs JavaScript.